Regional Weather Roundup
Issued by NWS

Home | Current Version | Previous Version | Text Only | Print | Product List | Glossary Off
Versions: 1 2 3 4 5 6 7 8 9 10 11 12 13 14 15 16 17 18 19 20 21 22 23 24 25 26 27 28 29 30 31 32 33 34 35 36 37 38 39 40 41 42 43 44 45 46 47 48 49 50

076
ASUS43 KDMX 272108
RWRIA

WEATHER ROUNDUP FOR IOWA
NATIONAL WEATHER SERVICE DES MOINES IA
400 PM CDT FRI MAY 27 2016

NOTE: "FAIR" INDICATES FEW OR NO CLOUDS BELOW 12,000 FEET WITH NO
SIGNIFICANT WEATHER AND/OR OBSTRUCTIONS TO VISIBILITY.

* - THESE STATIONS ARE NOT NWS STATIONS...THUS NOT UNDER NWS
QUALITY CONTROL.  THEY ALSO DO NOT REPORT WEATHER SUCH
AS PRECIPITATION OR FOG.

IAZ001>003-012>014-020>022-031>034-043>046-272200-
   NORTHWEST IOWA

CITY           SKY/WX    TMP DP  RH WIND       PRES   REMARKS
CARROLL *      PTSUNNY   73  61  64 E5        29.74F
CHEROKEE *     PTSUNNY   75  59  57 SW5       29.74F
DENISON *      CLOUDY    75  59  57 CALM      29.72F
LE MARS *      SUNNY     75  57  53 CALM      29.75S
ORANGE CITY *  SUNNY     73  57  56 SW3       29.74F
SHELDON *      MOSUNNY   75  57  53 SW8       29.73F
SIOUX CITY     PTSUNNY   78  59  51 CALM      29.73F
SPENCER        MOSUNNY   76  57  51 W9        29.74F
STORM LAKE *     N/A     75  57  53 SE5       29.75F
$$

IAZ055>058-069>071-079>083-090>094-272200-
   SOUTHWEST IOWA

CITY           SKY/WX    TMP DP  RH WIND       PRES   REMARKS
ATLANTIC *     SUNNY     75  63  64 N5        29.74F
AUDUBON *        N/A     75  64  69 CALM      29.75F
CLARINDA *       N/A     73  64  73 MISG      29.77R
COUNCIL BLFS * SUNNY     75  61  60 N3        29.73F
CRESTON *      MOSUNNY   73  63  68 CALM      29.77F
HARLAN  *      MOSUNNY   75  59  57 VRB5G14   29.77F
LAMONI         CLOUDY    76  65  68 W6        29.75F
RED OAK *      SUNNY     75  64  69 NE8       29.74F
SHENANDOAH *   CLOUDY    75  64  69 VRB5      29.75S
$$

IAZ047>049-059>061-072>074-084-272200-
   CENTRAL IOWA

CITY           SKY/WX    TMP DP  RH WIND       PRES   REMARKS
AMES           MOSUNNY   74  64  71 W13       29.75S
ANKENY *       MOSUNNY   73  66  78 W10G16    29.74F
BOONE *        MOSUNNY   73  64  73 W9        29.74F
CHARITON *     MOSUNNY   77  64  65 W8        29.75F
DES MOINES     PTSUNNY   75  63  66 W10       29.74F
GRINNELL*      MOSUNNY   77  66  69 SW12      29.74S
KNOXVILLE *    PTSUNNY   77  63  61 W12G17    29.73S
MARSHALLTOWN   MOSUNNY   74  66  76 SW13      29.73F
NEWTON *       PTSUNNY   75  66  73 MISG      29.74S
PERRY *        PTSUNNY   73  64  73 CALM      29.75F
$$

IAZ004>006-015-016-023>025-035-036-272200-
   NORTH CENTRAL IOWA

CITY           SKY/WX    TMP DP  RH WIND       PRES   REMARKS
ALGONA *       MOSUNNY   75  59  57 VRB5      29.74F
CLARION *      PTSUNNY   72  64  78 NW6G13    29.76S
ESTHERVILLE    PTSUNNY   73  58  59 W5        29.75F
FORT DODGE *   MOSUNNY   73  59  60 CALM      29.75F
MASON CITY     PTSUNNY   71  64  78 VRB5      29.78R
FOREST CITY *  PTSUNNY   70  61  73 W3        29.77F
WEBSTER CITY * MOSUNNY   72  64  78 VRB3      29.74S
IOWA FALLS *   PTSUNNY   75  66  73 W12       29.76R
$$

IAZ007>011-017>019-026>030-037>042-050>054-066-272200-
   NORTHEAST IOWA

CITY           SKY/WX    TMP DP  RH WIND       PRES   REMARKS
CEDAR RAPIDS   CLOUDY    78  68  71 S16G24    29.72S HX  80
CHARLES CITY * CLOUDY    70  68  94 S5        29.76S
CLINTON *      CLOUDY    73  67  81 S16       29.80S
DECORAH *      DRIZZLE   70  68  94 CALM      29.76R
DUBUQUE        CLOUDY    74  65  73 S14G25    29.77F
MONTICELLO *   PTSUNNY   79  64  61 S22G29    29.74F HX  81
OELWEIN *        N/A    N/A N/A N/A S9        29.75S
WATERLOO       PTSUNNY   74  66  76 W5        29.72F
$$

IAZ064-065-067-068-078-272200-
   EAST CENTRAL IOWA

CITY           SKY/WX    TMP DP  RH WIND       PRES   REMARKS
DAVENPORT      LGT RAIN  75  68  78 S13       29.79F
IOWA CITY      MOSUNNY   80  68  66 S17G23    29.74F HX  83
MT. PLEASANT * PTSUNNY   82  70  65 S16       29.76S HX  86
MUSCATINE *    PTSUNNY   77  68  73 S14G23    29.76F
QUAD CITIES    CLOUDY    76  67  73 S14       29.78F
$$

IAZ062-063-075>077-085>089-095>099-272200-
   SOUTHEAST IOWA

CITY           SKY/WX    TMP DP  RH WIND       PRES   REMARKS
BURLINGTON     PTSUNNY   77  70  79 S13       29.77F
FAIRFIELD *      N/A    N/A N/A N/A MISG        N/A
FORT MADISON * MOSUNNY   79  70  73 S14       29.77F HX  81
KEOKUK *       SUNNY     79  70  73 S13       29.76F HX  81
OSKALOOSA *      N/A     84  63  48 SW15      29.73S HX  85
OTTUMWA        PTSUNNY   80  66  62 SW9       29.73F HX  82
WASHINGTON *   MOSUNNY   82  82 100 S15       29.75F HX  97
$$

ABBREVIATIONS USED IN REMARKS
   TC - TEMPERATURES IN CELSIUS
  WCI - WIND CHILL INDEX
   HX - HEAT INDEX
  VSB - VISIBILITY
$$





USA.gov is the U.S. government's official web portal to all federal, state and local government web resources and services.